[[{"header":{"parameterUnit":"m.s-1","parameterCategory":1,"la1":30.2991,"la2":30.254,"lo1":-89.0895,"lo2":-89.0444,"dy":0.0017,"dx":0.0017,"nx":28,"ny":28,"refTime":"2024-08-08T09:00:00:Z","depth":0,"parameterNumber":2,"parameterNumberName":"U-component_of_WINDS"},"data":[0,0,0,0,0,0,0,0,0,0,0,0,0,0,0,0,0,0,0,0,0,0,0,0,0,0,0,0,0,0,0,0,0,0,0,0,0,0,0,0,0,0,0,0,0,0,0,0,0,0,0,0,0,0,0,0,0,0,4.9343,4.9343,0,4.9334,4.9334,4.9334,4.9236,4.9234,4.9232,4.9229,4.9222,4.9224,4.9226,0,0,0,0,0,0,0,0,0,0,0,0,0,4.9279,4.9281,4.9343,4.9343,4.9343,4.9334,4.9334,4.9334,4.9237,4.9234,4.9231,4.9228,4.9221,4.9224,4.9226,0,0,0,0,0,0,0,0,0,0,0,0,0,4.9293,4.9282,4.9343,4.9293,4.9289,4.9334,4.9334,4.9334,4.9237,4.9234,4.923,4.9227,4.9221,4.9224,4.9227,4.932,0,0,4.9236,4.9238,0,0,0,0,0,0,0,0,4.9292,4.9295,4.9301,4.9297,4.9292,4.9283,4.9309,4.9329,4.9238,4.9257,4.9229,4.9225,4.9245,4.9246,4.9253,4.932,4.9319,4.9237,4.9239,4.924,4.9241,0,0,0,0,0,0,0,4.9291,4.9295,4.9339,4.9301,4.9295,4.9273,4.927,4.9312,4.9272,4.9255,4.9248,4.9248,4.9242,4.925,4.9252,4.9319,4.9237,4.9239,4.9241,4.9243,4.9466,4.947,0,0,0,0,0,0,4.9297,4.9295,4.934,4.9339,4.9283,4.9277,4.9274,4.9289,4.9271,4.9265,4.9251,4.9244,4.9246,4.9248,4.9251,4.9361,4.924,4.9243,4.9245,4.9462,4.9467,4.9472,0,0,0,0,0,0,4.9296,4.9302,4.934,4.9315,4.9318,4.9282,4.9299,4.9291,4.9298,4.9268,4.9261,4.9266,4.9244,4.9247,4.9304,4.936,4.9244,4.9247,4.9457,4.9464,4.9469,4.9581,0,0,0,0,0,0,4.9294,4.9302,4.9336,4.9317,4.932,4.9392,4.9303,4.9294,4.9304,4.9294,4.9281,4.9275,4.9241,4.93,4.9308,4.9362,4.925,4.9452,4.946,4.9467,4.9573,4.959,4.9606,0,0,0,0,0,4.9292,4.9367,4.9338,4.9344,4.9361,4.9396,4.9398,4.9356,4.9309,4.9343,4.9325,4.9275,4.9353,4.9307,4.9314,4.9371,4.9449,4.9458,4.9467,4.9565,4.9587,4.9605,0,0,0,0,0,0,4.9393,4.9363,4.9331,4.9401,4.9402,4.9379,4.9421,4.938,4.9395,4.9385,4.9334,4.9332,4.9398,4.939,4.9339,4.9462,4.9392,4.9403,4.9464,4.9485,4.9501,4.9502,4.9252,0,0,0,0,0,4.9424,4.9453,4.9426,4.9491,4.9493,4.9458,4.9471,4.9439,4.9438,4.9438,4.9423,4.9425,4.9449,4.9467,4.9488,4.9571,4.9568,4.9614,4.9631,4.9645,4.9655,4.9702,4.9722,4.9501,4.9501,4.9501,0,0,4.9486,4.9474,4.9495,4.9511,4.9507,4.9541,4.9458,4.9496,4.9521,4.9444,4.9497,4.9487,4.9486,4.9558,4.9589,4.9553,4.9716,4.9656,4.9667,4.967,4.9713,4.9734,4.9753,4.9508,4.9507,4.9506,0,0,4.9618,4.9611,4.9666,4.9665,4.9661,4.9638,4.9652,4.9636,4.9626,4.968,4.9624,4.9653,4.9696,4.9699,4.9705,4.9843,4.9799,4.9852,4.9939,4.9985,5.0003,5.0018,5.0069,5.0088,4.9862,4.9862,4.9862,0,4.9697,4.9744,4.9699,4.9742,4.9751,4.9684,4.9741,4.9742,4.9746,4.9755,4.9715,4.9771,4.9764,4.9838,4.9872,4.9879,4.9894,4.9853,5.0003,5.0018,5.0032,5.008,5.0099,4.9869,4.9868,4.9867,4.9867,0,4.9842,4.9876,4.9921,4.9927,4.9942,4.9991,4.9956,4.9977,4.9945,4.9927,4.9984,4.9975,4.9995,5.001,4.9979,5.008,5.0059,5.0012,4.9941,5.006,5.0105,5.0123,4.9878,4.9876,4.9874,4.9872,0,0,5.0034,5.0018,5.0035,5.0039,5.0032,5.0058,5.0107,5.0126,5.0146,5.0152,5.0192,5.0232,5.019,5.0198,5.0168,5.0208,5.0322,5.0157,5.0156,5.0189,5.0435,5.0471,5.0493,5.0293,5.0296,5.0299,5.0436,0,5.0163,5.0243,5.0206,5.0291,5.0323,5.0262,5.0304,5.0306,5.0291,5.0318,5.0301,5.0332,5.0273,5.0278,5.0315,5.03,5.037,5.0289,5.0331,5.0333,5.0334,5.0516,5.0553,5.0683,5.0453,5.0456,5.0458,0,5.0322,5.0337,5.0425,5.0416,5.0428,5.0467,5.0483,5.0509,5.0511,5.0498,5.0509,5.047,5.0519,5.0449,5.0517,5.0463,5.0478,5.0474,5.0478,5.0481,5.0403,5.0525,5.0723,5.0743,5.0485,5.0483,5.0481,0,5.0457,5.0498,5.0557,5.0561,5.0551,5.0581,5.0578,5.0576,5.0592,5.0607,5.0617,5.0638,5.065,5.0668,5.0637,5.0588,5.071,5.0637,5.0702,5.0703,5.073,5.0729,5.0935,5.0739,5.0739,5.0738,5.0738,0,5.0604,5.0661,5.0617,5.0653,5.0717,5.0675,5.0739,5.073,5.073,5.0765,5.0714,5.0748,5.0704,5.0735,5.0712,5.0773,5.0778,5.077,5.0764,5.0775,5.0777,5.0785,5.0776,5.0744,5.0742,5.0741,5.0741,0,5.0764,5.0736,5.0797,5.0784,5.0782,5.083,5.0819,5.0853,5.0836,5.0882,5.089,5.0864,5.0898,5.0869,5.0901,5.0886,5.0968,5.0948,5.0967,5.0962,5.103,5.1024,5.1249,5.1277,5.1062,5.1064,5.1066,0,5.086,5.0903,5.0895,5.0915,5.0916,5.0948,5.0964,5.0926,5.0946,5.0954,5.0988,5.1018,5.1039,5.1097,5.1082,5.1108,5.1088,5.1165,5.1092,5.1104,5.1092,5.109,5.1095,5.118,5.1183,5.1185,5.1186,0,5.1034,5.102,5.1044,5.1066,5.1087,5.1102,5.1113,5.1133,5.1094,5.1119,5.1153,5.117,5.1205,5.1236,5.1258,5.1256,5.1217,5.121,5.1227,5.124,5.125,5.1247,5.1009,5.1205,5.1203,5.1202,5.1201,5.12,5.1166,5.1203,5.1204,5.1234,5.1239,5.1252,5.1284,5.1272,5.13,5.1326,5.1302,5.1345,5.1349,5.1374,5.1378,5.1412,5.138,5.1404,5.141,5.1417,5.1428,5.1245,5.1416,5.1415,5.1415,5.1414,5.1414,0,5.1339,5.1338,5.1367,5.1385,5.141,5.137,5.1381,5.1405,5.1443,5.1451,5.1474,5.1516,5.1547,5.1536,5.1563,5.1593,5.1576,5.1602,5.16,5.1601,5.1453,5.1437,5.1616,5.1616,5.1616,5.1616,5.1616,5.1616,5.1433,5.1493,5.1479,5.1543,5.1541,5.1583,5.1593,5.1606,5.1612,5.1661,5.1686,5.1679,5.168,5.1708,5.1736,5.1732,5.1745,5.1779,5.1768,5.1631,5.1611,5.1592,5.1576,5.1781,5.1782,5.1913,5.1914,5.1915]},{"header":{"parameterUnit":"m.s-1","parameterCategory":1,"la1":30.2991,"la2":30.254,"lo1":-89.0895,"lo2":-89.0444,"dy":0.0017,"dx":0.0017,"nx":28,"ny":28,"refTime":"2024-08-08T09:00:00:Z","depth":0,"parameterNumber":3,"parameterNumberName":"V-component_of_WINDS"},"data":[0,0,0,0,0,0,0,0,0,0,0,0,0,0,0,0,0,0,0,0,0,0,0,0,0,0,0,0,0,0,0,0,0,0,0,0,0,0,0,0,0,0,0,0,0,0,0,0,0,0,0,0,0,0,0,0,0,0,-4.3785,-4.3785,0,-4.3813,-4.3814,-4.3814,-4.3823,-4.3823,-4.3823,-4.3823,-4.385,-4.3851,-4.3851,0,0,0,0,0,0,0,0,0,0,0,0,0,-4.3739,-4.374,-4.3785,-4.3786,-4.3786,-4.3813,-4.3814,-4.3814,-4.3823,-4.3823,-4.3823,-4.3823,-4.385,-4.385,-4.3851,0,0,0,0,0,0,0,0,0,0,0,0,0,-4.3762,-4.374,-4.3785,-4.3794,-4.3795,-4.3813,-4.3814,-4.3814,-4.3824,-4.3823,-4.3823,-4.3823,-4.3849,-4.385,-4.3852,-4.3862,0,0,-4.3855,-4.3856,0,0,0,0,0,0,0,0,-4.3761,-4.3764,-4.3792,-4.3793,-4.3795,-4.3815,-4.3807,-4.383,-4.3824,-4.3813,-4.3823,-4.3823,-4.3838,-4.384,-4.3846,-4.3864,-4.3865,-4.3855,-4.3856,-4.3857,-4.3857,0,0,0,0,0,0,0,-4.3759,-4.3763,-4.3796,-4.3793,-4.3794,-4.3796,-4.3799,-4.3812,-4.3826,-4.3814,-4.3814,-4.3818,-4.3839,-4.3845,-4.3846,-4.3865,-4.3855,-4.3856,-4.3857,-4.3858,-4.3895,-4.3895,0,0,0,0,0,0,-4.3757,-4.3761,-4.3795,-4.3797,-4.3777,-4.3797,-4.3801,-4.3808,-4.3826,-4.3828,-4.3818,-4.3818,-4.3843,-4.3845,-4.3847,-4.3862,-4.3857,-4.3858,-4.3858,-4.3894,-4.3895,-4.3895,0,0,0,0,0,0,-4.3755,-4.3759,-4.3794,-4.378,-4.3784,-4.3798,-4.3807,-4.3809,-4.3815,-4.3829,-4.3831,-4.3821,-4.3843,-4.3846,-4.3859,-4.3863,-4.3858,-4.3859,-4.3894,-4.3894,-4.3895,-4.3891,0,0,0,0,0,0,-4.3754,-4.3759,-4.3763,-4.378,-4.3785,-4.3805,-4.3807,-4.381,-4.3817,-4.3818,-4.3833,-4.3835,-4.3843,-4.3857,-4.386,-4.3865,-4.386,-4.3894,-4.3894,-4.3895,-4.389,-4.3891,-4.3891,0,0,0,0,0,-4.3752,-4.376,-4.3763,-4.3767,-4.379,-4.3806,-4.3809,-4.3818,-4.3818,-4.3822,-4.3831,-4.3835,-4.3862,-4.3858,-4.3862,-4.3867,-4.3894,-4.3894,-4.3895,-4.389,-4.3891,-4.3891,0,0,0,0,0,0,-4.3742,-4.3762,-4.3766,-4.3779,-4.3791,-4.3807,-4.3813,-4.3818,-4.3829,-4.3829,-4.3839,-4.3843,-4.3855,-4.3862,-4.3858,-4.3879,-4.3878,-4.3879,-4.3874,-4.3874,-4.3874,-4.3872,-4.3861,0,0,0,0,0,-4.3742,-4.3753,-4.377,-4.378,-4.3785,-4.3798,-4.3805,-4.3811,-4.3823,-4.3828,-4.3838,-4.3849,-4.3861,-4.3868,-4.3879,-4.3892,-4.3896,-4.3897,-4.3897,-4.3898,-4.3898,-4.3907,-4.3908,-4.3897,-4.3897,-4.3897,0,0,-4.374,-4.3753,-4.3759,-4.3778,-4.3788,-4.3799,-4.3802,-4.3813,-4.3822,-4.383,-4.3843,-4.3851,-4.3864,-4.3878,-4.3884,-4.3884,-4.3902,-4.3898,-4.3898,-4.3899,-4.3907,-4.3908,-4.3909,-4.3897,-4.3897,-4.3897,0,0,-4.3744,-4.3754,-4.3764,-4.3775,-4.379,-4.3799,-4.3801,-4.3817,-4.3823,-4.3837,-4.3844,-4.3854,-4.3873,-4.3883,-4.389,-4.39,-4.3903,-4.3903,-4.3904,-4.3912,-4.3913,-4.3914,-4.3918,-4.3919,-4.3904,-4.3904,-4.3904,0,-4.374,-4.3757,-4.3769,-4.378,-4.3789,-4.3798,-4.3809,-4.3818,-4.3835,-4.3841,-4.3841,-4.3866,-4.3876,-4.3892,-4.3895,-4.39,-4.3904,-4.3901,-4.3912,-4.3913,-4.3914,-4.3918,-4.3919,-4.3904,-4.3904,-4.3904,-4.3904,0,-4.3752,-4.3765,-4.3771,-4.3789,-4.3799,-4.381,-4.3823,-4.3831,-4.3837,-4.3846,-4.386,-4.3873,-4.3887,-4.3891,-4.3897,-4.3909,-4.3909,-4.391,-4.391,-4.3915,-4.3919,-4.392,-4.3903,-4.3903,-4.3903,-4.3904,0,0,-4.3748,-4.3775,-4.3777,-4.3786,-4.3804,-4.3814,-4.3826,-4.3841,-4.3848,-4.386,-4.3871,-4.3888,-4.389,-4.3899,-4.3905,-4.3912,-4.392,-4.3914,-4.3914,-4.3915,-4.3935,-4.3934,-4.3935,-4.3923,-4.3924,-4.3924,-4.3934,0,-4.3754,-4.3777,-4.3788,-4.3805,-4.3817,-4.3827,-4.3838,-4.385,-4.3859,-4.387,-4.388,-4.3892,-4.3894,-4.39,-4.3907,-4.3918,-4.3924,-4.3917,-4.3933,-4.3933,-4.3929,-4.3937,-4.3935,-4.3944,-4.3936,-4.3936,-4.3936,0,-4.3764,-4.3778,-4.3796,-4.3815,-4.3821,-4.383,-4.3846,-4.3856,-4.3871,-4.3877,-4.3888,-4.3895,-4.3908,-4.3907,-4.3926,-4.392,-4.3928,-4.3934,-4.3935,-4.3936,-4.3934,-4.3938,-4.3947,-4.3948,-4.3938,-4.3938,-4.3938,0,-4.376,-4.3783,-4.3798,-4.3805,-4.3827,-4.3834,-4.3843,-4.3858,-4.3867,-4.388,-4.3887,-4.3901,-4.3909,-4.392,-4.3931,-4.3929,-4.3949,-4.3948,-4.3954,-4.3954,-4.3957,-4.3956,-4.3967,-4.3962,-4.3962,-4.3962,-4.3962,0,-4.3765,-4.3776,-4.3796,-4.3805,-4.3818,-4.3832,-4.3844,-4.3854,-4.3868,-4.3879,-4.3888,-4.3898,-4.3913,-4.3924,-4.3933,-4.3947,-4.3951,-4.3956,-4.3958,-4.3955,-4.3955,-4.396,-4.3959,-4.3962,-4.3962,-4.3962,-4.3962,0,-4.3762,-4.3776,-4.3793,-4.3813,-4.3819,-4.3827,-4.3845,-4.3854,-4.3865,-4.3879,-4.3883,-4.3899,-4.3913,-4.3926,-4.3945,-4.3951,-4.3966,-4.3968,-4.3961,-4.3962,-4.3967,-4.3966,-4.398,-4.3983,-4.3977,-4.3977,-4.3977,0,-4.3764,-4.3773,-4.3795,-4.3804,-4.3814,-4.3827,-4.3837,-4.3851,-4.3861,-4.388,-4.3887,-4.3902,-4.3916,-4.3939,-4.3952,-4.3967,-4.397,-4.3974,-4.3972,-4.3969,-4.397,-4.3969,-4.397,-4.3974,-4.3974,-4.3974,-4.3974,0,-4.3767,-4.3774,-4.3788,-4.3805,-4.3817,-4.3831,-4.3845,-4.3851,-4.3868,-4.3878,-4.3894,-4.3905,-4.3925,-4.3941,-4.3958,-4.3967,-4.3973,-4.3974,-4.3976,-4.3973,-4.3969,-4.3972,-4.3961,-4.3974,-4.3974,-4.3974,-4.3974,-4.3974,-4.3767,-4.3776,-4.3793,-4.3809,-4.3822,-4.3835,-4.3845,-4.3858,-4.3872,-4.389,-4.3898,-4.3914,-4.393,-4.3953,-4.3963,-4.3976,-4.3976,-4.3979,-4.398,-4.398,-4.398,-4.3967,-4.3979,-4.3979,-4.3979,-4.3979,-4.3979,0,-4.377,-4.3782,-4.3797,-4.3817,-4.383,-4.3836,-4.3853,-4.3863,-4.3877,-4.3892,-4.3906,-4.3925,-4.394,-4.3955,-4.3972,-4.3979,-4.3983,-4.3983,-4.3982,-4.3985,-4.3978,-4.3975,-4.398,-4.398,-4.398,-4.398,-4.398,-4.398,-4.3773,-4.379,-4.3799,-4.3822,-4.3834,-4.3851,-4.386,-4.3873,-4.3885,-4.3906,-4.3919,-4.393,-4.3945,-4.3963,-4.3977,-4.3981,-4.3987,-4.3987,-4.3992,-4.3985,-4.3985,-4.3985,-4.3982,-4.3988,-4.3988,-4.3997,-4.3997,-4.3997]}]]